Regional Weather Roundup
Issued by NWS Austin/San Antonio, TX

Home | Current Version | Previous Version | Text Only | Print | Product List | Glossary On
Versions: 1 2 3 4 5 6 7 8 9 10 11 12 13 14 15 16 17 18 19 20 21 22 23 24 25 26 27 28 29 30 31 32 33 34 35 36 37 38 39 40 41 42 43 44 45 46 47 48 49 50
000
ASUS44 KEWX 260311
RWREWX
SOUTH TEXAS REGIONAL WEATHER ROUNDUP
NATIONAL WEATHER SERVICE AUSTIN/SAN ANTONIO TX
1000 PM CDT THU MAY 25 2017

NOTE: "FAIR" INDICATED FEW OR NO CLOUDS BELOW 12,000 FEET WITH NO
SIGNIFICANT WEATHER AND/OR OBSTRUCTIONS TO VISIBILITY.

* - THESE STATIONS ARE NOT NWS OR FAA STATIONS...AND ARE NOT SUBJECT
    TO NWS AND FAA QUALITY CONTROL.

TXZ171-172-183>190-260400-
TEXAS HILL COUNTRY AND EDWARDS PLATEAU

CITY           SKY/WX    TMP DP  RH WIND       PRES   REMARKS
JUNCTION       CLEAR     83  63  50 S5        29.71R
*LLANO         CLEAR     81  64  57 CALM      29.73R
BURNET         CLEAR     81  66  60 S9G21     29.73R
*HORSESHOE BAY NOT AVBL
*KERRVILLE     CLEAR     80  69  70 S13       29.75R
*FREDERICKSBRG CLEAR     80  64  58 S6        29.75R
*ROCKSPRINGS   CLEAR     81  64  57 S9        29.78R
*BOERNE STAGE  CLEAR     77  68  73 S13G22    29.76R
*CASTROVILLE   CLEAR     81  69  66 SE6G18    29.74R
HONDO          CLEAR     83  71  67 SE14      29.72R
*UVALDE        CLEAR     83  70  65 SE10      29.70R
DEL RIO        CLEAR     86  66  51 SE7       29.65R
LAUGHLIN AFB   CLEAR     81  69  67 E8        29.67R
CARRIZO SPRGS  CLEAR     90  64  43 SE10G17   29.65R HX  91
*EAGLE PASS    NOT AVBL
$$

TXZ173-191>194-202-209-217>225-228-260400-
CENTRAL AND SOUTH CENTRAL TEXAS

CITY           SKY/WX    TMP DP  RH WIND       PRES   REMARKS
GEORGETOWN     CLEAR     81  64  57 S14G20    29.71R
AUSTIN/BERGSTM CLEAR     80  69  69 S13       29.72R
AUSTIN/MABRY   CLEAR     80  68  66 S12G22    29.73R
*AUSTIN/EXEC   FAIR      77  68  73 S14       29.72S
*LAGO VISTA    CLEAR     80  68  67 S10G22    29.73R
SAN MARCOS     CLEAR     77  68  73 S12       29.74R
NEW BRAUNFELS  CLEAR     78  69  73 S15       29.72R
RANDOLPH AFB   CLEAR     77  72  84 S15       29.73R
PT SAN ANTONIO CLEAR     80  71  74 SE16      29.72R
SAN ANTONIO    PTCLDY    79  69  71 SE16      29.73R
STINSON FIELD  CLEAR     80  70  71 SE15G25   29.71R
*LA GRANGE     CLEAR     77  69  77 S7        29.75R
*GIDDINGS      CLEAR     76  66  70 S8G17     29.75S
*GONZALES      CLEAR     77  72  84 S14G20    29.74S
$$

TXZ163>164-176>182-195>201-210>213-226-227-235-260400-
SOUTHEAST TEXAS

CITY           SKY/WX    TMP DP  RH WIND       PRES   REMARKS
COLLEGE STN    CLEAR     77  60  55 S14       29.74R
*BRYAN         CLEAR     77  58  53 S13G18    29.75R
*CALDWELL      NOT AVBL
*CROCKETT      CLEAR     77  59  53 S10       29.77R
*BRENHAM       CLEAR     78  63  61 S10       29.77R
HUNTSVILLE     CLEAR     78  55  44 S8        29.75R
CONROE         CLEAR     75  62  64 S12       29.77R
HOUSTON BUSH   CLEAR     77  64  64 S14G21    29.78R
HOUSTON HOBBY  PTCLDY    74  65  73 S9        29.79R
*HOUSTON SW AP CLEAR     71  66  83 S5        29.80S
PEARLAND       CLEAR     76  66  71 S7        29.81R
HOUSTON HOOKS  CLEAR     77  64  64 S8G16     29.78R
ELLINGTON FLD  PTCLDY    75  64  69 SE7       29.82R
SUGAR LAND     CLEAR     75  67  76 S12       29.79R
*HOUSTON EXEC  CLEAR     73  64  73 S12       29.80R
*CLEVELAND MUN CLEAR     73  64  73 S9G16     29.79S
*WHARTON       CLEAR     73  65  77 SE9       29.80R
*COLUMBUS      FAIR      74  65  72 S8        29.79R
*EAGLE LAKE    CLEAR     74  68  80 S9        29.79R
$$

TXZ214>216-236>238-260400-
THE UPPER TEXAS COAST

CITY           SKY/WX    TMP DP  RH WIND       PRES   REMARKS
*ORANGE        CLEAR     73  66  79 S6        29.84F
PORT ARTHUR    CLEAR     71  63  75 S8        29.82S
GALVESTON      CLEAR     78  68  71 S20       29.82R
ANGLETON       CLEAR     76  68  76 S12       29.81R
*BAY CITY      CLEAR     74  69  82 SE6       29.80R
PALACIOS       CLEAR     76  70  82 S14       29.79R
$$

TXZ229>234-239>247-260400-
TEXAS COASTAL BEND AND RIO GRANDE PLAINS

CITY           SKY/WX    TMP DP  RH WIND       PRES   REMARKS
VICTORIA       CLOUDY    77  71  82 S10       29.79R
*BEEVILLE      CLOUDY    78  78 100 SE12      29.76R
ROCKPORT       CLOUDY    80  73  79 S13G24    29.78R
*PORT ARANSAS  CLOUDY    79  73  83 S16G23    29.78R
*PORT LAVACA   MOCLDY    76  73  93 S10       29.79R
*INGLESIDE     CLOUDY    81  74  81 S16       29.78R
CORPUS CHRISTI MOCLDY    79  75  87 SE15G22   29.78R
CORPUS NAS     CLOUDY    81  76  84 S20G29    29.77R
*ROBSTOWN      CLEAR     79  74  84 SE15      29.77R
ALICE          MOCLDY    78  74  87 SE14      29.75R
KINGSVILLE NAS MOCLDY    81  77  88 SE15G24   29.75R
COTULLA        CLEAR     86  71  60 SE15G22   29.68R HX  91
*FAITH RANCH   PTCLDY    90  68  48 SE8G14    29.67R HX  93
LAREDO         CLEAR     88  74  63 SE22G28   29.68R HX  96
$$

TXZ248>255-260400-
DEEP SOUTH TEXAS

CITY           SKY/WX    TMP DP  RH WIND       PRES   REMARKS
BROWNSVILLE    CLEAR     80  75  84 SE15      29.78R
PORT ISABEL    CLEAR     80  74  81 S15       29.77R
*SOUTH PADRE   NOT AVBL
HARLINGEN      CLEAR     79  76  90 SE16      29.76R
*HEBBRONVILLE  CLEAR     82  71  68 S12G17    29.75R
MCALLEN        CLOUDY    83  74  74 SE14G29   29.76R
*WESLACO       PTCLDY    80  74  82 S14G22    29.76R
FALFURRIAS     CLOUDY    82  74  77 SE10      29.74R
EDINBURG       PTCLDY    82  73  72 SE16G23   29.76R
*ZAPATA        CLEAR     84  73  68 SE15G28   29.70R HX  90
$$

TXZ213>215-236>238-242>244-246-247-251-254-255-260400-
CMAN STATIONS

STATION/POSITION TIME  TEMP    WIND        PRES    WAVE
                       AIR SEA DIR/SP/G            HT/PER
                 (UTC) (F)     (DEG/KT/KT) (MB)    (FT/S)
SABINE PASS      0242   76 81  170/  9/ 12 1011.7
SEA RIM ST PARK  0300   77     170/ 15/ 18 1010.6
NORTH JETTY/GLS  0242      80  160/ 18/ 21 1009.1
EAGLE POINT      0242   78 79  180/ 14/ 18 1009.1
MORGANS POINT    0242   78 79  160/ 11/ 15 1008.9
MISSION/ARANSAS  0200   79                 1008.0
PORT O`CONNOR    0242   78     150/ 19/ 22 1008.2
PORT ARANSAS     0300   79 80  150/ 19/ 23 1008.5
MALAQUITE BEACH  0242   80 81  140/ 22/ 26 1008.4
BAFFIN BAY       0242   80 80              1008.0
PORT ISABEL      0242   80 82  150/ 21/ 24 1008.1
$$




USA.gov is the U.S. government's official web portal to all federal, state and local government web resources and services.